Вернуться в каталог

OKEAN 4

АктивенНаукаPO
NORAD 23317·PAYLOAD·🇷🇺 Russia

Запущен Oct 11, 1994 с Plesetsk Cosmodrome

Loading…

Ближайшие Пролёты (ближайшие 24 часа)

TLE

СвежийSource: Space-Track

Эпоха: Sep 14, 2026, 04:35 UTC

1 23317U 94066A   26257.19144311  .00001396  00000-0  11731-3 0  9992
2 23317  82.5363 169.9169 0015752 340.0669  19.9936 14.97486721728658

Отслеживайте OKEAN 4 в реальном времени с AllMySat

Download on the App Store